Tracking 25710 objects as of 6-Jul-2022
HD Live streaming from Space Station
objects crossing your sky now

STARLINK-2191

Track STARLINK-2191 now!
10-day predictions
STARLINK-2191 is classified as:


NORAD ID: 48565
Int'l Code: 2021-041N
Perigee: 553.4 km
Apogee: 555.3 km
Inclination: 53.1 °
Period: 95.6 minutes
Semi major axis: 6925 km
RCS: Unknown
Launch date: May 15, 2021
Source: United States (US)
Launch site: AIR FORCE EASTERN TEST RANGE (AFETR)
aabbcc
Your satellite tracking list
Your tracking list is empty




NASA's NSSDC Master Catalog

Two Line Element Set (TLE):
1 48565U 21041N   22186.29660987 -.00000279  00000-0  19587-6 0  9997
2 48565  53.0555  42.3366 0001367  94.1827 265.9318 15.06401373 62726
Source of the keplerian elements: AFSPC